AVA9520 SKBO-SKBQ

Flight info

Callsign AVA9520
Flight time 0h 57m
Altitude 38000
Route OSUSU4R GIKPU UQ120 DIBAM UW9 ELB W12 DARNI DARNI1A
Aircraft A320/M-SDE3FGHIRWY/LB1

Departure

Time 2026-04-26 20:25
Airport El Dorado International Airport (SKBO)

Arrival

Time 2026-04-26 21:23
Airport Ernesto Cortissoz International Airport (SKBQ)
Time Latitude Longitude Altitude Speed Heading
2026-04-26 19:54 4.69838 -74.14401 8373 ft 0 kts 229°
2026-04-26 20:14 4.69853 -74.14385 8373 ft 3 kts 229°
2026-04-26 20:15 4.69866 -74.14367 8372 ft 4 kts 252°
2026-04-26 20:15 4.69866 -74.14343 8373 ft 4 kts 298°
2026-04-26 20:15 4.69855 -74.14326 8373 ft 0 kts 307°
2026-04-26 20:15 4.69869 -74.14345 8372 ft 4 kts 307°
2026-04-26 20:16 4.69885 -74.14367 8373 ft 4 kts 307°
2026-04-26 20:16 4.69901 -74.14388 8373 ft 2 kts 307°
2026-04-26 20:16 4.69903 -74.14390 8373 ft 0 kts 307°
2026-04-26 20:18 4.69903 -74.14391 8373 ft 1 kts 307°
2026-04-26 20:18 4.69924 -74.14417 8373 ft 8 kts 309°
2026-04-26 20:18 4.69970 -74.14479 8372 ft 14 kts 308°
2026-04-26 20:18 4.70046 -74.14562 8373 ft 18 kts 340°
2026-04-26 20:19 4.70170 -74.14506 8373 ft 23 kts 36°
2026-04-26 20:19 4.70309 -74.14399 8373 ft 26 kts 38°
2026-04-26 20:19 4.70382 -74.14277 8373 ft 19 kts 128°
2026-04-26 20:19 4.70305 -74.14168 8373 ft 20 kts 127°
2026-04-26 20:20 4.70216 -74.14052 8373 ft 22 kts 127°
2026-04-26 20:20 4.70122 -74.13927 8372 ft 23 kts 127°
2026-04-26 20:20 4.70022 -74.13796 8373 ft 24 kts 127°
2026-04-26 20:20 4.69920 -74.13659 8373 ft 24 kts 127°
2026-04-26 20:21 4.69818 -74.13522 8373 ft 25 kts 128°
2026-04-26 20:21 4.69710 -74.13379 8373 ft 27 kts 127°
2026-04-26 20:21 4.69591 -74.13225 8373 ft 29 kts 128°
2026-04-26 20:21 4.69469 -74.13064 8372 ft 29 kts 127°
2026-04-26 20:22 4.69346 -74.12900 8372 ft 29 kts 127°
2026-04-26 20:22 4.69221 -74.12736 8372 ft 30 kts 127°
2026-04-26 20:22 4.69143 -74.12607 8372 ft 15 kts 98°
2026-04-26 20:22 4.69162 -74.12544 8372 ft 6 kts 36°
2026-04-26 20:23 4.69185 -74.12533 8372 ft 2 kts 22°
2026-04-26 20:23 4.69203 -74.12527 8371 ft 4 kts 16°
2026-04-26 20:23 4.69254 -74.12513 8371 ft 10 kts 17°
2026-04-26 20:23 4.69295 -74.12509 8371 ft 3 kts 327°
2026-04-26 20:24 4.69302 -74.12520 8371 ft 0 kts 307°
2026-04-26 20:24 4.69315 -74.12536 8371 ft 11 kts 307°
2026-04-26 20:24 4.69500 -74.12782 8369 ft 79 kts 307°
2026-04-26 20:25 4.69955 -74.13383 8372 ft 135 kts 307°
2026-04-26 20:25 4.70377 -74.13940 8370 ft 166 kts 307°
2026-04-26 20:25 4.71416 -74.15273 9086 ft 183 kts 304°
2026-04-26 20:25 4.72180 -74.16273 9742 ft 183 kts 306°
2026-04-26 20:26 4.72959 -74.17308 10282 ft 184 kts 307°
2026-04-26 20:26 4.73907 -74.18134 10736 ft 186 kts 338°
2026-04-26 20:26 4.75176 -74.18273 11194 ft 187 kts 14°
2026-04-26 20:26 4.76390 -74.17785 11608 ft 193 kts 24°
2026-04-26 20:27 4.77682 -74.17196 11759 ft 215 kts 24°
2026-04-26 20:27 4.79117 -74.16547 11888 ft 237 kts 24°
2026-04-26 20:27 4.80689 -74.15839 12008 ft 260 kts 24°
2026-04-26 20:27 4.82411 -74.15064 12328 ft 279 kts 24°
2026-04-26 20:28 4.84200 -74.14260 13000 ft 285 kts 24°
2026-04-26 20:28 4.86072 -74.13490 13446 ft 302 kts 20°
2026-04-26 20:28 4.88131 -74.12773 13662 ft 325 kts 18°
2026-04-26 20:28 4.90363 -74.12055 13818 ft 348 kts 17°
2026-04-26 20:29 4.92740 -74.11314 13854 ft 364 kts 17°
2026-04-26 20:29 4.95179 -74.10556 14384 ft 369 kts 17°
2026-04-26 20:29 4.97646 -74.09779 14984 ft 373 kts 17°
2026-04-26 20:29 5.00131 -74.08982 15583 ft 377 kts 17°
2026-04-26 20:30 5.02643 -74.08168 16184 ft 381 kts 17°
2026-04-26 20:30 5.05175 -74.07344 16784 ft 384 kts 18°
2026-04-26 20:30 5.07728 -74.06511 17371 ft 388 kts 17°
2026-04-26 20:30 5.10304 -74.05671 17938 ft 392 kts 17°
2026-04-26 20:31 5.12875 -74.04833 18457 ft 395 kts 17°
2026-04-26 20:31 5.15501 -74.03975 18947 ft 398 kts 17°
2026-04-26 20:31 5.18149 -74.03113 19418 ft 402 kts 18°
2026-04-26 20:31 5.20820 -74.02248 19908 ft 405 kts 18°
2026-04-26 20:32 5.23516 -74.01376 20369 ft 408 kts 18°
2026-04-26 20:32 5.26229 -74.00498 20847 ft 411 kts 18°
2026-04-26 20:32 5.28962 -73.99612 21296 ft 414 kts 18°
2026-04-26 20:32 5.31714 -73.98722 21754 ft 417 kts 18°
2026-04-26 20:33 5.34490 -73.97822 22201 ft 421 kts 18°
2026-04-26 20:33 5.37285 -73.96912 22671 ft 424 kts 19°
2026-04-26 20:33 5.40100 -73.95995 23100 ft 427 kts 19°
2026-04-26 20:33 5.42933 -73.95072 23524 ft 430 kts 19°
2026-04-26 20:34 5.45789 -73.94142 23880 ft 433 kts 19°
2026-04-26 20:34 5.48658 -73.93210 24267 ft 435 kts 19°
2026-04-26 20:34 5.51550 -73.92271 24618 ft 438 kts 19°
2026-04-26 20:34 5.54460 -73.91327 24980 ft 441 kts 19°
2026-04-26 20:35 5.57383 -73.90376 25318 ft 443 kts 19°
2026-04-26 20:35 5.60322 -73.89420 25685 ft 445 kts 19°
2026-04-26 20:35 5.63273 -73.88462 26029 ft 447 kts 19°
2026-04-26 20:35 5.66247 -73.87494 26359 ft 450 kts 19°
2026-04-26 20:36 5.69228 -73.86524 26679 ft 452 kts 19°
2026-04-26 20:36 5.72190 -73.85562 27001 ft 454 kts 19°
2026-04-26 20:36 5.75206 -73.84583 27336 ft 456 kts 19°
2026-04-26 20:36 5.78233 -73.83601 27679 ft 459 kts 19°
2026-04-26 20:37 5.81280 -73.82612 28013 ft 461 kts 19°
2026-04-26 20:37 5.84335 -73.81617 28328 ft 463 kts 19°
2026-04-26 20:37 5.87408 -73.80616 28622 ft 466 kts 19°
2026-04-26 20:37 5.90503 -73.79607 28925 ft 468 kts 19°
2026-04-26 20:38 5.93610 -73.78593 29245 ft 471 kts 19°
2026-04-26 20:38 5.96732 -73.77574 29541 ft 473 kts 19°
2026-04-26 20:38 5.99871 -73.76551 29811 ft 475 kts 19°
2026-04-26 20:38 6.03047 -73.75598 30085 ft 478 kts 14°
2026-04-26 20:39 6.06316 -73.74918 30317 ft 481 kts 12°
2026-04-26 20:39 6.08534 -73.74467 30471 ft 482 kts 12°
2026-04-26 20:39 6.12894 -73.73575 30779 ft 484 kts 13°
2026-04-26 20:39 6.16204 -73.72890 31010 ft 486 kts 13°
2026-04-26 20:40 6.19508 -73.72203 31349 ft 485 kts 13°
2026-04-26 20:40 6.22810 -73.71516 31679 ft 485 kts 13°
2026-04-26 20:40 6.26111 -73.70832 32005 ft 484 kts 12°
2026-04-26 20:40 6.29413 -73.70153 32314 ft 484 kts 12°
2026-04-26 20:41 6.32717 -73.69476 32646 ft 484 kts 12°
2026-04-26 20:41 6.36014 -73.68800 32979 ft 484 kts 12°
2026-04-26 20:41 6.38244 -73.68343 33212 ft 484 kts 12°
2026-04-26 20:41 6.41543 -73.67664 33560 ft 483 kts 12°
2026-04-26 20:42 6.44838 -73.66985 33890 ft 483 kts 12°
2026-04-26 20:42 6.48123 -73.66305 34204 ft 483 kts 12°
2026-04-26 20:42 6.51414 -73.65626 34538 ft 481 kts 12°
2026-04-26 20:42 6.54693 -73.64953 34892 ft 480 kts 12°
2026-04-26 20:43 6.57959 -73.64282 35243 ft 478 kts 12°
2026-04-26 20:43 6.61171 -73.63621 35572 ft 477 kts 12°
2026-04-26 20:43 6.64423 -73.62953 35897 ft 475 kts 12°
2026-04-26 20:43 6.67658 -73.62288 36210 ft 474 kts 12°
2026-04-26 20:44 6.70884 -73.61622 36523 ft 473 kts 12°
2026-04-26 20:44 6.74098 -73.60958 36812 ft 471 kts 12°
2026-04-26 20:44 6.77307 -73.60297 37104 ft 470 kts 11°
2026-04-26 20:44 6.80513 -73.59639 37384 ft 469 kts 11°
2026-04-26 20:45 6.83706 -73.58981 37669 ft 468 kts 11°
2026-04-26 20:45 6.86893 -73.58323 37826 ft 468 kts 11°
2026-04-26 20:45 6.90081 -73.57665 37849 ft 467 kts 11°
2026-04-26 20:46 6.96444 -73.56384 37858 ft 465 kts
2026-04-26 20:46 7.02902 -73.56280 37836 ft 465 kts 356°
2026-04-26 20:47 7.09367 -73.56597 37859 ft 465 kts 356°
2026-04-26 20:47 7.15832 -73.56913 37860 ft 465 kts 357°
2026-04-26 20:48 7.22299 -73.57227 37878 ft 466 kts 357°
2026-04-26 20:48 7.28773 -73.57531 37864 ft 466 kts 357°
2026-04-26 20:49 7.35209 -73.57833 37856 ft 466 kts 357°
2026-04-26 20:49 7.41691 -73.58144 37858 ft 466 kts 357°
2026-04-26 20:50 7.48167 -73.58452 37855 ft 466 kts 357°
2026-04-26 20:50 7.54657 -73.58765 37853 ft 466 kts 357°
2026-04-26 20:51 7.61144 -73.59078 37851 ft 466 kts 357°
2026-04-26 20:51 7.67595 -73.59388 37857 ft 467 kts 357°
2026-04-26 20:52 7.74096 -73.59701 37872 ft 467 kts 357°
2026-04-26 20:52 7.80595 -73.60015 37870 ft 468 kts 356°
2026-04-26 20:53 7.87099 -73.60331 37859 ft 468 kts 357°
2026-04-26 20:53 7.93610 -73.60637 37866 ft 468 kts 357°
2026-04-26 20:54 8.00121 -73.60945 37861 ft 468 kts 357°
2026-04-26 20:54 8.06639 -73.61263 37880 ft 469 kts 357°
2026-04-26 20:55 8.13114 -73.61577 37877 ft 469 kts 357°
2026-04-26 20:55 8.19603 -73.62193 37885 ft 468 kts 346°
2026-04-26 20:56 8.25718 -73.64375 37883 ft 467 kts 337°
2026-04-26 20:56 8.31735 -73.66845 37883 ft 467 kts 337°
2026-04-26 20:57 8.37759 -73.69317 37886 ft 467 kts 336°
2026-04-26 20:57 8.43790 -73.71788 37882 ft 468 kts 336°
2026-04-26 20:58 8.49828 -73.74266 37880 ft 469 kts 336°
2026-04-26 20:58 8.55873 -73.76741 37881 ft 469 kts 336°
2026-04-26 20:59 8.61923 -73.79221 37871 ft 469 kts 336°
2026-04-26 20:59 8.67976 -73.81704 37870 ft 469 kts 336°
2026-04-26 21:00 8.74031 -73.84183 37869 ft 469 kts 336°
2026-04-26 21:00 8.80090 -73.86668 37865 ft 469 kts 336°
2026-04-26 21:01 8.86093 -73.89135 37871 ft 469 kts 336°
2026-04-26 21:01 8.92139 -73.91627 37855 ft 469 kts 336°
2026-04-26 21:02 8.98182 -73.94108 37853 ft 469 kts 336°
2026-04-26 21:02 9.04227 -73.96595 37851 ft 469 kts 335°
2026-04-26 21:03 9.10145 -73.99362 37855 ft 468 kts 331°
2026-04-26 21:03 9.15914 -74.02397 37864 ft 467 kts 330°
2026-04-26 21:04 9.21678 -74.05439 37862 ft 467 kts 330°
2026-04-26 21:04 9.27491 -74.08401 37859 ft 468 kts 331°
2026-04-26 21:05 9.33322 -74.11334 37859 ft 468 kts 331°
2026-04-26 21:05 9.39148 -74.14284 37859 ft 467 kts 331°
2026-04-26 21:06 9.44960 -74.17240 37861 ft 467 kts 331°
2026-04-26 21:06 9.50771 -74.20194 37860 ft 468 kts 331°
2026-04-26 21:06 9.53647 -74.21655 37554 ft 470 kts 331°
2026-04-26 21:07 9.56600 -74.23158 36552 ft 478 kts 331°
2026-04-26 21:07 9.59572 -74.24671 35738 ft 480 kts 331°
2026-04-26 21:07 9.62579 -74.26202 34792 ft 486 kts 332°
2026-04-26 21:07 9.65616 -74.27747 33876 ft 491 kts 332°
2026-04-26 21:08 9.68687 -74.29311 32727 ft 498 kts 332°
2026-04-26 21:08 9.71809 -74.30900 31536 ft 506 kts 332°
2026-04-26 21:08 9.74958 -74.32500 30698 ft 505 kts 332°
2026-04-26 21:08 9.78103 -74.34098 29760 ft 506 kts 333°
2026-04-26 21:09 9.81254 -74.35701 28586 ft 507 kts 333°
2026-04-26 21:09 9.84411 -74.37311 27412 ft 509 kts 333°
2026-04-26 21:09 9.87578 -74.38927 26219 ft 511 kts 333°
2026-04-26 21:09 9.90741 -74.40540 25306 ft 506 kts 333°
2026-04-26 21:10 9.93874 -74.42135 24422 ft 501 kts 332°
2026-04-26 21:10 9.96949 -74.43754 23624 ft 494 kts 330°
2026-04-26 21:10 9.99918 -74.45457 22755 ft 486 kts 328°
2026-04-26 21:10 10.02793 -74.47218 21888 ft 480 kts 327°
2026-04-26 21:11 10.05607 -74.48999 21075 ft 474 kts 327°
2026-04-26 21:11 10.08381 -74.50765 20284 ft 468 kts 327°
2026-04-26 21:11 10.11136 -74.52498 19530 ft 463 kts 327°
2026-04-26 21:11 10.13877 -74.54192 18808 ft 458 kts 328°
2026-04-26 21:12 10.16595 -74.55843 18101 ft 454 kts 328°
2026-04-26 21:12 10.19297 -74.57469 17304 ft 449 kts 328°
2026-04-26 21:12 10.21974 -74.59075 16546 ft 444 kts 329°
2026-04-26 21:12 10.24617 -74.60661 15827 ft 439 kts 328°
2026-04-26 21:13 10.27233 -74.62240 15118 ft 435 kts 328°
2026-04-26 21:13 10.29819 -74.63809 14420 ft 431 kts 328°
2026-04-26 21:13 10.32376 -74.65366 13765 ft 426 kts 329°
2026-04-26 21:13 10.34905 -74.66907 13029 ft 422 kts 329°
2026-04-26 21:14 10.37406 -74.68432 12289 ft 417 kts 329°
2026-04-26 21:14 10.39882 -74.69940 11564 ft 413 kts 329°
2026-04-26 21:14 10.42328 -74.71430 10872 ft 407 kts 329°
2026-04-26 21:14 10.44739 -74.72900 10192 ft 402 kts 329°
2026-04-26 21:15 10.47104 -74.74339 9609 ft 383 kts 329°
2026-04-26 21:15 10.49294 -74.75668 9278 ft 352 kts 329°
2026-04-26 21:15 10.51323 -74.76899 8841 ft 330 kts 329°
2026-04-26 21:15 10.53243 -74.78067 8116 ft 325 kts 329°
2026-04-26 21:16 10.55198 -74.79260 7680 ft 321 kts 329°
2026-04-26 21:16 10.57080 -74.80406 7247 ft 318 kts 329°
2026-04-26 21:16 10.58970 -74.81556 6761 ft 314 kts 329°
2026-04-26 21:16 10.60835 -74.82691 6106 ft 311 kts 329°
2026-04-26 21:17 10.62682 -74.83816 5424 ft 308 kts 329°
2026-04-26 21:17 10.64509 -74.84926 4782 ft 304 kts 329°
2026-04-26 21:17 10.66310 -74.86021 4149 ft 299 kts 329°
2026-04-26 21:17 10.68077 -74.87099 3516 ft 294 kts 329°
2026-04-26 21:18 10.69803 -74.88152 3106 ft 282 kts 329°
2026-04-26 21:18 10.71428 -74.89108 2998 ft 258 kts 335°
2026-04-26 21:18 10.73063 -74.89575 3003 ft 234 kts 354°
2026-04-26 21:18 10.74633 -74.89503 3008 ft 220 kts 11°
2026-04-26 21:19 10.76040 -74.88998 2923 ft 210 kts 27°
2026-04-26 21:19 10.77202 -74.88161 2737 ft 201 kts 38°
2026-04-26 21:19 10.78250 -74.87263 2479 ft 193 kts 37°
2026-04-26 21:19 10.79254 -74.86403 2237 ft 185 kts 38°
2026-04-26 21:20 10.80219 -74.85577 2008 ft 178 kts 37°
2026-04-26 21:20 10.81147 -74.84782 1789 ft 168 kts 37°
2026-04-26 21:20 10.82002 -74.84049 1576 ft 154 kts 38°
2026-04-26 21:20 10.82804 -74.83359 1383 ft 148 kts 38°
2026-04-26 21:21 10.83581 -74.82691 1193 ft 143 kts 37°
2026-04-26 21:21 10.84338 -74.82037 992 ft 141 kts 37°
2026-04-26 21:21 10.85087 -74.81403 821 ft 139 kts 38°
2026-04-26 21:21 10.85814 -74.80764 699 ft 137 kts 37°
2026-04-26 21:22 10.86563 -74.80140 511 ft 137 kts 36°
2026-04-26 21:22 10.87300 -74.79518 307 ft 137 kts 37°
2026-04-26 21:22 10.88023 -74.78896 128 ft 136 kts 38°
2026-04-26 21:23 10.89062 -74.78003 94 ft 50 kts 40°
2026-04-26 21:23 10.89283 -74.77814 92 ft 35 kts 41°
2026-04-26 21:23 10.89377 -74.77669 85 ft 23 kts 86°
2026-04-26 21:23 10.89334 -74.77564 87 ft 13 kts 148°
2026-04-26 21:24 10.89259 -74.77526 87 ft 12 kts 158°
2026-04-26 21:24 10.89163 -74.77493 90 ft 17 kts 175°
2026-04-26 21:24 10.89050 -74.77559 98 ft 22 kts 220°
2026-04-26 21:24 10.88911 -74.77677 96 ft 31 kts 219°
2026-04-26 21:25 10.88743 -74.77808 97 ft 27 kts 200°
2026-04-26 21:25 10.88641 -74.77772 96 ft 6 kts 131°
2026-04-26 21:25 10.88634 -74.77763 96 ft 0 kts 130°